| time (UTC) | temp F | wind direction | speed knots | gust knots | rain 1hr in | rain 24hr in | rain mn in | humidity % | barometer mb |
| 20260901190010 | 97 | 211 | 0.0 | 6.1 | 0.00 | 0.00 | 0.00 | 44 | 1015.1 |
| 20260901184509 | 96 | 218 | 0.0 | 0.9 | 0.00 | 0.00 | 0.00 | 46 | 1015.2 |
| 20260901183004 | 96 | 309 | 0.0 | 0.9 | 0.00 | 0.00 | 0.00 | 49 | 1015.3 |
| 20260901181503 | 96 | 252 | 0.0 | 0.0 | 0.00 | 0.00 | 0.00 | 50 | 1015.5 |
| 20260901180100 | 95 | 127 | 0.0 | 2.6 | 0.00 | 0.00 | 0.00 | 48 | 1015.7 |
| 20260901174557 | 95 | 267 | 0.0 | 0.9 | 0.00 | 0.00 | 0.00 | 51 | 1015.9 |
| 20260901173101 | 94 | 260 | 0.0 | 0.9 | 0.00 | 0.00 | 0.00 | 50 | 1016.0 |
| 20260901171600 | 93 | 202 | 0.0 | 1.7 | 0.00 | 0.00 | 0.00 | 54 | 1016.1 |
| 20260901170047 | 92 | 273 | 0.0 | 4.3 | 0.00 | 0.00 | 0.00 | 53 | 1016.3 |
| 20260901164546 | 92 | 199 | 0.0 | 0.0 | 0.00 | 0.00 | 0.00 | 55 | 1016.5 |
| 20260901163042 | 91 | 271 | 0.0 | 8.7 | 0.00 | 0.00 | 0.00 | 55 | 1016.7 |
| 20260901161552 | 90 | 202 | 0.0 | 6.1 | 0.00 | 0.00 | 0.00 | 57 | 1016.7 |
| 20260901160038 | 90 | 205 | 0.0 | 4.3 | 0.00 | 0.00 | 0.00 | 58 | 1016.8 |
| 20260901154537 | 89 | 212 | 0.0 | 2.6 | 0.00 | 0.00 | 0.00 | 59 | 1016.8 |
| 20260901153029 | 88 | 241 | 0.0 | 1.7 | 0.00 | 0.00 | 0.00 | 61 | 1016.9 |
| 20260901151528 | 87 | 225 | 0.0 | 0.9 | 0.00 | 0.00 | 0.00 | 62 | 1016.9 |
| 20260901150035 | 86 | 225 | 0.0 | 2.6 | 0.00 | 0.00 | 0.00 | 63 | 1016.8 |
| 20260901144529 | 86 | 260 | 0.0 | 3.5 | 0.00 | 0.00 | 0.00 | 64 | 1016.7 |
| 20260901143018 | 85 | 219 | 0.0 | 0.0 | 0.00 | 0.00 | 0.00 | 66 | 1016.8 |
| 20260901141515 | 84 | 227 | 0.0 | 0.9 | 0.00 | 0.00 | 0.00 | 67 | 1016.8 |
| 20260901140010 | 83 | 199 | 0.0 | 6.1 | 0.00 | 0.00 | 0.00 | 68 | 1016.8 |
| 20260901134508 | 82 | 225 | 0.0 | 0.0 | 0.00 | 0.00 | 0.00 | 70 | 1016.9 |
| 20260901133007 | 81 | 244 | 0.0 | 0.0 | 0.00 | 0.00 | 0.00 | 71 | 1016.9 |
| 20260901131507 | 80 | 244 | 0.0 | 0.0 | 0.00 | 0.00 | 0.00 | 72 | 1016.9 |
| 20260901130006 | 79 | 244 | 0.0 | 0.9 | 0.00 | 0.00 | 0.00 | 73 | 1016.8 |
| 20260901124511 | 78 | 243 | 0.0 | 0.0 | 0.00 | 0.00 | 0.00 | 75 | 1016.7 |
| 20260901123002 | 78 | 243 | 0.0 | 0.9 | 0.00 | 0.00 | 0.00 | 76 | 1016.5 |
| 20260901121501 | 77 | 243 | 0.0 | 0.0 | 0.00 | 0.00 | 0.00 | 77 | 1016.3 |
| 20260901120059 | 77 | 243 | 0.0 | 0.0 | 0.00 | 0.00 | 0.00 | 76 | 1016.3 |
| 20260901114638 | 77 | 243 | 0.0 | 0.0 | 0.00 | 0.00 | 0.00 | 76 | 1016.1 |
| 20260901113057 | 77 | 243 | 0.0 | 0.0 | 0.00 | 0.00 | 0.00 | 75 | 1015.9 |
| 20260901111555 | 77 | 243 | 0.0 | 0.0 | 0.00 | 0.00 | 0.00 | 75 | 1015.9 |
| 20260901110054 | 78 | 243 | 0.0 | 0.0 | 0.00 | 0.00 | 0.00 | 74 | 1015.8 |
| 20260901104551 | 78 | 243 | 0.0 | 0.0 | 0.00 | 0.00 | 0.00 | 73 | 1015.8 |
| 20260901103050 | 78 | 243 | 0.0 | 0.0 | 0.00 | 0.00 | 0.00 | 73 | 1015.7 |
| 20260901101550 | 79 | 243 | 0.0 | 0.9 | 0.00 | 0.00 | 0.00 | 72 | 1015.6 |
| 20260901100049 | 79 | 243 | 0.0 | 0.0 | 0.00 | 0.00 | 0.00 | 72 | 1015.5 |
| 20260901094545 | 79 | 243 | 0.0 | 0.9 | 0.00 | 0.00 | 0.00 | 72 | 1015.5 |
| 20260901093043 | 79 | 243 | 0.0 | 0.0 | 0.00 | 0.00 | 0.00 | 71 | 1015.4 |
| 20260901091543 | 80 | 243 | 0.0 | 0.0 | 0.00 | 0.00 | 0.00 | 71 | 1015.4 |
| 20260901090046 | 80 | 243 | 0.0 | 0.0 | 0.00 | 0.00 | 0.00 | 71 | 1015.3 |
| 20260901084543 | 80 | 243 | 0.0 | 0.0 | 0.00 | 0.00 | 0.00 | 71 | 1015.0 |
| 20260901083037 | 80 | 208 | 0.0 | 0.0 | 0.00 | 0.00 | 0.00 | 71 | 1014.9 |
| 20260901081535 | 80 | 208 | 0.0 | 0.0 | 0.00 | 0.00 | 0.00 | 70 | 1014.9 |
| 20260901080034 | 81 | 208 | 0.0 | 0.0 | 0.00 | 0.00 | 0.00 | 70 | 1014.9 |
| 20260901074532 | 81 | 185 | 0.0 | 0.0 | 0.00 | 0.00 | 0.00 | 69 | 1015.0 |
| 20260901073032 | 81 | 185 | 0.0 | 0.0 | 0.00 | 0.00 | 0.00 | 69 | 1014.9 |
| 20260901071531 | 81 | 185 | 0.0 | 0.0 | 0.00 | 0.00 | 0.00 | 69 | 1014.8 |
| 20260901070029 | 81 | 185 | 0.0 | 0.0 | 0.00 | 0.00 | 0.00 | 69 | 1014.8 |
| 20260901064531 | 81 | 185 | 0.0 | 0.0 | 0.00 | 0.00 | 0.00 | 69 | 1014.9 |
| 20260901063029 | 81 | 185 | 0.0 | 0.0 | 0.00 | 0.00 | 0.00 | 69 | 1015.0 |
| 20260901061529 | 81 | 185 | 0.0 | 0.0 | 0.00 | 0.00 | 0.00 | 69 | 1014.9 |
| 20260901060025 | 81 | 185 | 0.0 | 0.0 | 0.00 | 0.00 | 0.00 | 70 | 1014.9 |
| 20260901054524 | 82 | 185 | 0.0 | 0.0 | 0.00 | 0.00 | 0.00 | 69 | 1014.9 |
| 20260901053022 | 82 | 185 | 0.0 | 0.0 | 0.00 | 0.00 | 0.00 | 68 | 1014.9 |
| 20260901051521 | 82 | 185 | 0.0 | 1.7 | 0.00 | 0.00 | 0.00 | 68 | 1014.8 |
| 20260901050018 | 83 | 185 | 0.0 | 0.0 | 0.00 | 0.00 | 0.00 | 67 | 1014.8 |
| 20260901044535 | 83 | 184 | 0.0 | 0.0 | 0.00 | 0.00 | 0.00 | 67 | 1014.8 |
| 20260901043016 | 83 | 215 | 0.0 | 1.7 | 0.00 | 0.00 | 0.00 | 66 | 1014.9 |
| 20260901041525 | 83 | 198 | 0.0 | 1.7 | 0.00 | 0.00 | 0.00 | 65 | 1014.9 |
| 20260901040016 | 84 | 211 | 0.0 | 1.7 | 0.00 | 0.00 | 0.00 | 64 | 1014.9 |
| 20260901034524 | 84 | 209 | 0.0 | 0.0 | 0.00 | 0.00 | 0.00 | 63 | 1015.0 |
| 20260901033037 | 85 | 231 | 0.0 | 0.0 | 0.00 | 0.00 | 0.00 | 63 | 1014.9 |
| 20260901031515 | 85 | 229 | 0.0 | 0.0 | 0.00 | 0.00 | 0.00 | 63 | 1014.8 |
| 20260901030024 | 85 | 203 | 0.0 | 0.9 | 0.00 | 0.00 | 0.00 | 62 | 1014.7 |
| 20260901024521 | 86 | 168 | 0.0 | 0.9 | 0.00 | 0.00 | 0.00 | 62 | 1014.6 |
| 20260901023013 | 86 | 169 | 0.0 | 0.9 | 0.00 | 0.00 | 0.00 | 61 | 1014.6 |
| 20260901021518 | 87 | 171 | 0.0 | 0.0 | 0.00 | 0.00 | 0.00 | 60 | 1014.5 |
| 20260901020015 | 87 | 171 | 0.0 | 0.0 | 0.00 | 0.00 | 0.00 | 59 | 1014.4 |
| 20260901014512 | 88 | 313 | 0.0 | 0.0 | 0.00 | 0.00 | 0.00 | 58 | 1014.2 |
| 20260901013012 | 88 | 313 | 0.0 | 0.0 | 0.00 | 0.00 | 0.00 | 56 | 1014.1 |
| 20260901011513 | 89 | 315 | 0.0 | 0.0 | 0.00 | 0.00 | 0.00 | 53 | 1013.9 |
| 20260901010016 | 90 | 315 | 0.0 | 0.0 | 0.00 | 0.00 | 0.00 | 51 | 1013.9 |
| 20260901004509 | 91 | 315 | 0.0 | 0.0 | 0.00 | 0.00 | 0.00 | 48 | 1013.7 |
| 20260901003015 | 93 | 315 | 0.0 | 0.0 | 0.00 | 0.00 | 0.00 | 47 | 1013.6 |
| 20260901001508 | 94 | 315 | 0.0 | 0.0 | 0.00 | 0.00 | 0.00 | 46 | 1013.6 |
| 20260901000022 | 95 | 315 | 0.0 | 0.0 | 0.00 | 0.00 | 0.00 | 45 | 1013.6 |
| 20260831234508 | 95 | 315 | 0.0 | 0.0 | 0.00 | 0.00 | 0.00 | 44 | 1013.6 |
| 20260831233008 | 95 | 257 | 0.0 | 0.0 | 0.00 | 0.00 | 0.00 | 43 | 1013.7 |
| 20260831231507 | 96 | 219 | 0.0 | 0.0 | 0.00 | 0.00 | 0.00 | 42 | 1013.7 |
| 20260831230014 | 97 | 215 | 0.0 | 0.9 | 0.00 | 0.00 | 0.00 | 41 | 1013.6 |
| 20260831224505 | 98 | 297 | 0.0 | 2.6 | 0.00 | 0.00 | 0.00 | 41 | 1013.5 |
| 20260831223005 | 98 | 209 | 0.0 | 0.9 | 0.00 | 0.00 | 0.00 | 42 | 1013.4 |
| 20260831221504 | 98 | 267 | 0.0 | 4.3 | 0.00 | 0.00 | 0.00 | 41 | 1013.6 |
| 20260831220002 | 98 | 225 | 0.0 | 3.5 | 0.00 | 0.00 | 0.00 | 41 | 1013.7 |
| 20260831214502 | 98 | 202 | 0.0 | 0.0 | 0.00 | 0.00 | 0.00 | 41 | 1013.7 |
| 20260831213001 | 98 | 162 | 0.0 | 0.9 | 0.00 | 0.00 | 0.00 | 39 | 1013.6 |
| 20260831211501 | 98 | 272 | 0.0 | 0.0 | 0.00 | 0.00 | 0.00 | 40 | 1013.6 |
| 20260831210100 | 99 | 212 | 0.0 | 1.7 | 0.00 | 0.00 | 0.00 | 40 | 1013.7 |
| 20260831204558 | 99 | 209 | 0.0 | 0.9 | 0.00 | 0.00 | 0.00 | 39 | 1013.8 |
| 20260831203104 | 99 | 275 | 0.0 | 0.0 | 0.00 | 0.00 | 0.00 | 42 | 1013.8 |
| 20260831201554 | 98 | 325 | 0.0 | 0.9 | 0.00 | 0.00 | 0.00 | 42 | 1014.1 |
| 20260831200053 | 97 | 229 | 0.0 | 0.9 | 0.00 | 0.00 | 0.00 | 42 | 1014.2 |
| 20260831194601 | 97 | 257 | 0.0 | 0.9 | 0.00 | 0.00 | 0.00 | 43 | 1014.4 |
| 20260831193043 | 96 | 256 | 0.0 | 2.6 | 0.00 | 0.00 | 0.00 | 43 | 1014.5 |
| 20260831191539 | 95 | 194 | 0.0 | 2.6 | 0.00 | 0.00 | 0.00 | 45 | 1014.7 |